Time,TemperatureF,DewpointF,PressureIn,WindDirection,WindDirectionDegrees,WindSpeedMPH,WindSpeedGustMPH,Humidity,HourlyPrecipIn,Conditions,Clouds,dailyrainin,SoftwareType,DateUTC
2013-09-12 00:00:00,74.8,66.3,30.04,SSE,161,0.0,5.0,75,0.00,,,0.00,VWS V14.01,2013-09-12 05:00:00,
2013-09-12 00:01:00,74.8,66.3,30.04,SSE,160,0.0,5.0,75,0.00,,,0.00,VWS V14.01,2013-09-12 05:01:00,
2013-09-12 00:06:00,74.7,66.6,30.04,SSE,160,0.0,0.0,76,0.00,,,0.00,VWS V14.01,2013-09-12 05:06:00,
2013-09-12 00:11:00,74.7,66.6,30.04,SSE,160,0.0,0.0,76,0.00,,,0.00,VWS V14.01,2013-09-12 05:11:00,
2013-09-12 00:16:00,74.6,66.5,30.04,SSE,160,0.0,0.0,76,0.00,,,0.00,VWS V14.01,2013-09-12 05:16:00,
2013-09-12 00:21:00,74.5,66.8,30.03,SSE,160,0.0,1.0,77,0.00,,,0.00,VWS V14.01,2013-09-12 05:21:00,
2013-09-12 00:26:00,74.5,66.8,30.03,SSE,160,0.0,1.0,77,0.00,,,0.00,VWS V14.01,2013-09-12 05:26:00,
2013-09-12 00:30:00,74.4,66.7,30.03,SSE,160,0.0,1.0,77,0.00,,,0.00,VWS V14.01,2013-09-12 05:30:00,
2013-09-12 00:31:00,74.4,66.7,30.03,SSE,161,0.0,1.0,77,0.00,,,0.00,VWS V14.01,2013-09-12 05:31:00,
2013-09-12 00:36:00,74.3,66.6,30.03,SSE,160,0.0,0.0,77,0.00,,,0.00,VWS V14.01,2013-09-12 05:36:00,
2013-09-12 00:41:00,74.2,66.5,30.03,SSE,161,0.0,1.0,77,0.00,,,0.00,VWS V14.01,2013-09-12 05:41:00,
2013-09-12 00:46:00,74.0,66.7,30.03,SSE,161,0.0,1.0,78,0.00,,,0.00,VWS V14.01,2013-09-12 05:46:00,
2013-09-12 00:51:00,73.9,67.0,30.03,SSE,160,0.0,1.0,79,0.00,,,0.00,VWS V14.01,2013-09-12 05:51:00,
2013-09-12 00:56:00,73.9,67.0,30.03,SSE,161,0.0,1.0,79,0.00,,,0.00,VWS V14.01,2013-09-12 05:56:00,
2013-09-12 01:00:00,73.8,67.2,30.03,SSE,160,0.0,1.0,80,0.00,,,0.00,VWS V14.01,2013-09-12 06:00:00,
2013-09-12 01:01:00,73.8,67.2,30.03,SSE,161,0.0,1.0,80,0.00,,,0.00,VWS V14.01,2013-09-12 06:01:00,
2013-09-12 01:06:00,73.8,67.2,30.03,SSE,161,0.0,0.0,80,0.00,,,0.00,VWS V14.01,2013-09-12 06:06:00,
2013-09-12 01:11:00,73.8,67.6,30.03,SSE,160,0.0,0.0,81,0.00,,,0.00,VWS V14.01,2013-09-12 06:11:00,
2013-09-12 01:16:00,73.7,67.5,30.03,SSE,161,0.0,0.0,81,0.00,,,0.00,VWS V14.01,2013-09-12 06:16:00,
2013-09-12 01:21:00,73.7,67.5,30.02,SSE,161,0.0,0.0,81,0.00,,,0.00,VWS V14.01,2013-09-12 06:21:00,
2013-09-12 01:26:00,73.7,67.5,30.02,SSE,160,0.0,0.0,81,0.00,,,0.00,VWS V14.01,2013-09-12 06:26:00,
2013-09-12 01:30:00,73.6,67.1,30.03,SSE,161,0.0,0.0,80,0.00,,,0.00,VWS V14.01,2013-09-12 06:30:00,
2013-09-12 01:31:00,73.6,67.1,30.03,SSE,161,0.0,0.0,80,0.00,,,0.00,VWS V14.01,2013-09-12 06:31:00,
2013-09-12 01:36:00,73.6,67.1,30.03,SSE,161,0.0,0.0,80,0.00,,,0.00,VWS V14.01,2013-09-12 06:36:00,
2013-09-12 01:41:00,73.5,67.0,30.03,SSE,161,0.0,0.0,80,0.00,,,0.00,VWS V14.01,2013-09-12 06:41:00,
2013-09-12 01:46:00,73.4,66.9,30.03,SSE,160,0.0,0.0,80,0.00,,,0.00,VWS V14.01,2013-09-12 06:46:00,
2013-09-12 01:51:00,73.4,67.2,30.03,SSE,161,0.0,0.0,81,0.00,,,0.00,VWS V14.01,2013-09-12 06:51:00,
2013-09-12 01:56:00,73.3,67.1,30.03,SSE,161,0.0,0.0,81,0.00,,,0.00,VWS V14.01,2013-09-12 06:56:00,
2013-09-12 02:00:00,73.3,67.5,30.03,SSE,161,0.0,0.0,82,0.00,,,0.00,VWS V14.01,2013-09-12 07:00:00,
2013-09-12 02:01:00,73.3,67.5,30.03,SSE,161,0.0,0.0,82,0.00,,,0.00,VWS V14.01,2013-09-12 07:01:00,
2013-09-12 02:06:00,73.2,67.4,30.03,SSE,160,0.0,0.0,82,0.00,,,0.00,VWS V14.01,2013-09-12 07:06:00,
2013-09-12 02:11:00,73.1,67.3,30.03,SSE,160,0.0,0.0,82,0.00,,,0.00,VWS V14.01,2013-09-12 07:11:00,
2013-09-12 02:16:00,73.1,67.3,30.03,SSE,161,0.0,0.0,82,0.00,,,0.00,VWS V14.01,2013-09-12 07:16:00,
2013-09-12 02:21:00,73.1,67.3,30.03,SSE,160,0.0,0.0,82,0.00,,,0.00,VWS V14.01,2013-09-12 07:21:00,
2013-09-12 02:26:00,73.1,67.6,30.03,SSE,160,0.0,0.0,83,0.00,,,0.00,VWS V14.01,2013-09-12 07:26:00,
2013-09-12 02:30:00,73.1,67.6,30.03,SSE,160,0.0,0.0,83,0.00,,,0.00,VWS V14.01,2013-09-12 07:30:00,
2013-09-12 02:32:00,73.1,67.6,30.03,SSE,160,0.0,0.0,83,0.00,,,0.00,VWS V14.01,2013-09-12 07:32:00,
2013-09-12 02:37:00,73.1,67.6,30.03,SSE,161,0.0,0.0,83,0.00,,,0.00,VWS V14.01,2013-09-12 07:37:00,
2013-09-12 02:42:00,73.1,67.6,30.03,SSE,160,0.0,0.0,83,0.00,,,0.00,VWS V14.01,2013-09-12 07:42:00,
2013-09-12 02:47:00,73.1,67.6,30.03,SSE,161,0.0,0.0,83,0.00,,,0.00,VWS V14.01,2013-09-12 07:47:00,
2013-09-12 02:52:00,73.1,67.6,30.03,SSE,161,0.0,0.0,83,0.00,,,0.00,VWS V14.01,2013-09-12 07:52:00,
2013-09-12 02:57:00,73.2,67.7,30.03,SSE,160,0.0,0.0,83,0.00,,,0.00,VWS V14.01,2013-09-12 07:57:00,
2013-09-12 03:00:00,73.2,67.7,30.03,SSE,161,0.0,0.0,83,0.00,,,0.00,VWS V14.01,2013-09-12 08:00:00,
2013-09-12 03:02:00,73.2,67.7,30.03,SSE,161,0.0,0.0,83,0.00,,,0.00,VWS V14.01,2013-09-12 08:02:00,
2013-09-12 03:07:00,73.1,67.6,30.02,SSE,161,0.0,0.0,83,0.00,,,0.00,VWS V14.01,2013-09-12 08:07:00,
2013-09-12 03:12:00,73.2,68.1,30.02,SSE,161,0.0,0.0,84,0.00,,,0.00,VWS V14.01,2013-09-12 08:12:00,
2013-09-12 03:17:00,73.1,68.0,30.02,SSE,161,0.0,0.0,84,0.00,,,0.00,VWS V14.01,2013-09-12 08:17:00,
2013-09-12 03:22:00,73.2,68.1,30.02,SSE,160,0.0,0.0,84,0.00,,,0.00,VWS V14.01,2013-09-12 08:22:00,
2013-09-12 03:27:00,73.3,68.2,30.02,SSE,161,0.0,0.0,84,0.00,,,0.00,VWS V14.01,2013-09-12 08:27:00,
2013-09-12 03:30:00,73.4,68.3,30.02,SSE,160,0.0,0.0,84,0.00,,,0.00,VWS V14.01,2013-09-12 08:30:00,
2013-09-12 03:32:00,73.4,68.3,30.02,SSE,160,0.0,0.0,84,0.00,,,0.00,VWS V14.01,2013-09-12 08:32:00,
2013-09-12 03:37:00,73.5,68.4,30.02,SSE,160,0.0,0.0,84,0.00,,,0.00,VWS V14.01,2013-09-12 08:37:00,
2013-09-12 03:42:00,73.5,68.4,30.02,SSE,161,0.0,0.0,84,0.00,,,0.00,VWS V14.01,2013-09-12 08:42:00,
2013-09-12 03:47:00,73.6,68.5,30.02,SSE,161,0.0,0.0,84,0.00,,,0.00,VWS V14.01,2013-09-12 08:47:00,
2013-09-12 03:52:00,73.6,68.5,30.02,SSE,160,0.0,0.0,84,0.00,,,0.00,VWS V14.01,2013-09-12 08:52:00,
2013-09-12 03:57:00,73.6,68.1,30.02,SSE,161,0.0,0.0,83,0.00,,,0.00,VWS V14.01,2013-09-12 08:57:00,
2013-09-12 04:00:00,73.6,68.1,30.02,SSE,160,0.0,0.0,83,0.00,,,0.00,VWS V14.01,2013-09-12 09:00:00,
2013-09-12 04:02:00,73.6,68.1,30.02,SSE,161,0.0,0.0,83,0.00,,,0.00,VWS V14.01,2013-09-12 09:02:00,
2013-09-12 04:07:00,73.6,68.1,30.02,SSE,161,0.0,0.0,83,0.00,,,0.00,VWS V14.01,2013-09-12 09:07:00,
2013-09-12 04:12:00,73.5,68.0,30.02,SSE,160,0.0,0.0,83,0.00,,,0.00,VWS V14.01,2013-09-12 09:12:00,
2013-09-12 04:17:00,73.4,67.9,30.02,SSE,160,0.0,0.0,83,0.00,,,0.00,VWS V14.01,2013-09-12 09:17:00,
2013-09-12 04:22:00,73.3,67.8,30.02,SSE,160,0.0,0.0,83,0.00,,,0.00,VWS V14.01,2013-09-12 09:22:00,
2013-09-12 04:27:00,73.2,67.7,30.02,SSE,160,0.0,0.0,83,0.00,,,0.00,VWS V14.01,2013-09-12 09:27:00,
2013-09-12 04:30:00,73.1,67.6,30.02,SSE,160,0.0,0.0,83,0.00,,,0.00,VWS V14.01,2013-09-12 09:30:00,
2013-09-12 04:32:00,73.1,67.6,30.02,SSE,160,0.0,0.0,83,0.00,,,0.00,VWS V14.01,2013-09-12 09:32:00,
2013-09-12 04:37:00,73.0,67.9,30.02,SSE,161,0.0,0.0,84,0.00,,,0.00,VWS V14.01,2013-09-12 09:37:00,
2013-09-12 04:42:00,72.8,67.3,30.02,SSE,160,0.0,0.0,83,0.00,,,0.00,VWS V14.01,2013-09-12 09:42:00,
2013-09-12 04:47:00,72.7,67.6,30.02,SSE,161,0.0,0.0,84,0.00,,,0.00,VWS V14.01,2013-09-12 09:47:00,
2013-09-12 04:52:00,72.5,67.4,30.02,SSE,161,0.0,0.0,84,0.00,,,0.00,VWS V14.01,2013-09-12 09:52:00,
2013-09-12 04:57:00,72.4,67.3,30.02,SSE,160,0.0,0.0,84,0.00,,,0.00,VWS V14.01,2013-09-12 09:57:00,
2013-09-12 05:00:00,72.2,67.1,30.02,SSE,160,0.0,0.0,84,0.00,,,0.00,VWS V14.01,2013-09-12 10:00:00,
2013-09-12 05:02:00,72.2,67.1,30.02,SSE,160,0.0,0.0,84,0.00,,,0.00,VWS V14.01,2013-09-12 10:02:00,
2013-09-12 05:07:00,72.0,66.9,30.02,SSE,161,0.0,0.0,84,0.00,,,0.00,VWS V14.01,2013-09-12 10:07:00,
2013-09-12 05:12:00,71.9,67.2,30.02,SSE,161,0.0,0.0,85,0.00,,,0.00,VWS V14.01,2013-09-12 10:12:00,
2013-09-12 05:17:00,71.8,67.4,30.02,SSE,161,0.0,0.0,86,0.00,,,0.00,VWS V14.01,2013-09-12 10:17:00,
2013-09-12 05:22:00,71.7,67.3,30.02,SSE,160,0.0,0.0,86,0.00,,,0.00,VWS V14.01,2013-09-12 10:22:00,
2013-09-12 05:27:00,71.6,67.2,30.02,SSE,161,0.0,0.0,86,0.00,,,0.00,VWS V14.01,2013-09-12 10:27:00,
2013-09-12 05:30:00,71.5,67.1,30.02,SSE,161,0.0,0.0,86,0.00,,,0.00,VWS V14.01,2013-09-12 10:30:00,
2013-09-12 05:32:00,71.5,67.1,30.02,SSE,161,0.0,0.0,86,0.00,,,0.00,VWS V14.01,2013-09-12 10:32:00,
2013-09-12 05:37:00,71.4,67.0,30.02,SSE,160,0.0,0.0,86,0.00,,,0.00,VWS V14.01,2013-09-12 10:37:00,
2013-09-12 05:42:00,71.3,66.9,30.02,SSE,160,0.0,0.0,86,0.00,,,0.00,VWS V14.01,2013-09-12 10:42:00,
2013-09-12 05:47:00,71.2,66.8,30.02,SSE,161,0.0,0.0,86,0.00,,,0.00,VWS V14.01,2013-09-12 10:47:00,
2013-09-12 05:52:00,71.1,66.7,30.02,SSE,160,0.0,0.0,86,0.00,,,0.00,VWS V14.01,2013-09-12 10:52:00,
2013-09-12 05:57:00,71.0,66.9,30.02,SSE,160,0.0,0.0,87,0.00,,,0.00,VWS V14.01,2013-09-12 10:57:00,
2013-09-12 06:00:00,70.9,66.8,30.02,SSE,160,0.0,0.0,87,0.00,,,0.00,VWS V14.01,2013-09-12 11:00:00,
2013-09-12 06:02:00,70.9,66.8,30.02,SSE,161,0.0,0.0,87,0.00,,,0.00,VWS V14.01,2013-09-12 11:02:00,
2013-09-12 06:07:00,70.9,67.2,30.03,SSE,161,0.0,0.0,88,0.00,,,0.00,VWS V14.01,2013-09-12 11:07:00,
2013-09-12 06:12:00,70.8,67.1,30.03,SSE,160,0.0,0.0,88,0.00,,,0.00,VWS V14.01,2013-09-12 11:12:00,
2013-09-12 06:17:00,70.7,67.0,30.03,SSE,160,0.0,0.0,88,0.00,,,0.00,VWS V14.01,2013-09-12 11:17:00,
2013-09-12 06:22:00,70.6,66.9,30.02,SSE,160,0.0,0.0,88,0.00,,,0.00,VWS V14.01,2013-09-12 11:22:00,
2013-09-12 06:27:00,70.5,66.8,30.03,SSE,161,0.0,0.0,88,0.00,,,0.00,VWS V14.01,2013-09-12 11:27:00,
2013-09-12 06:30:00,70.4,66.7,30.03,SSE,161,0.0,0.0,88,0.00,,,0.00,VWS V14.01,2013-09-12 11:30:00,
2013-09-12 06:32:00,70.4,66.7,30.03,SSE,160,0.0,0.0,88,0.00,,,0.00,VWS V14.01,2013-09-12 11:32:00,
2013-09-12 06:37:00,70.3,66.6,30.03,SSE,160,0.0,0.0,88,0.00,,,0.00,VWS V14.01,2013-09-12 11:37:00,
2013-09-12 06:42:00,70.1,66.4,30.03,SSE,161,0.0,0.0,88,0.00,,,0.00,VWS V14.01,2013-09-12 11:42:00,
2013-09-12 06:47:00,70.0,66.3,30.03,SSE,161,0.0,0.0,88,0.00,,,0.00,VWS V14.01,2013-09-12 11:47:00,
2013-09-12 06:52:00,69.9,66.2,30.03,SSE,160,0.0,0.0,88,0.00,,,0.00,VWS V14.01,2013-09-12 11:52:00,
2013-09-12 06:57:00,69.7,66.0,30.03,SSE,161,0.0,0.0,88,0.00,,,0.00,VWS V14.01,2013-09-12 11:57:00,
2013-09-12 07:00:00,69.7,66.0,30.03,SSE,161,0.0,0.0,88,0.00,,,0.00,VWS V14.01,2013-09-12 12:00:00,
2013-09-12 07:02:00,69.6,65.9,30.03,SSE,160,0.0,0.0,88,0.00,,,0.00,VWS V14.01,2013-09-12 12:02:00,
2013-09-12 07:07:00,69.6,66.2,30.03,SSE,160,0.0,0.0,89,0.00,,,0.00,VWS V14.01,2013-09-12 12:07:00,
2013-09-12 07:12:00,69.5,66.1,30.04,SSE,161,0.0,0.0,89,0.00,,,0.00,VWS V14.01,2013-09-12 12:12:00,
2013-09-12 07:17:00,69.5,66.1,30.04,SSE,161,0.0,0.0,89,0.00,,,0.00,VWS V14.01,2013-09-12 12:17:00,
2013-09-12 07:22:00,69.5,66.4,30.04,SSE,160,0.0,0.0,90,0.00,,,0.00,VWS V14.01,2013-09-12 12:22:00,
2013-09-12 07:27:00,69.5,66.4,30.04,SSE,161,0.0,0.0,90,0.00,,,0.00,VWS V14.01,2013-09-12 12:27:00,
2013-09-12 07:30:00,69.5,66.4,30.04,SSE,160,0.0,0.0,90,0.00,,,0.00,VWS V14.01,2013-09-12 12:30:00,
2013-09-12 07:32:00,69.5,66.4,30.04,SSE,161,0.0,0.0,90,0.00,,,0.00,VWS V14.01,2013-09-12 12:32:00,
2013-09-12 07:37:00,69.5,66.8,30.04,SSE,161,0.0,0.0,91,0.00,,,0.00,VWS V14.01,2013-09-12 12:37:00,
2013-09-12 07:42:00,69.5,66.8,30.04,SSE,161,0.0,0.0,91,0.00,,,0.00,VWS V14.01,2013-09-12 12:42:00,
2013-09-12 07:47:00,69.6,66.9,30.04,SSE,161,0.0,0.0,91,0.00,,,0.00,VWS V14.01,2013-09-12 12:47:00,
2013-09-12 07:52:00,69.7,67.3,30.04,SSE,161,0.0,0.0,92,0.00,,,0.00,VWS V14.01,2013-09-12 12:52:00,
2013-09-12 07:57:00,69.8,67.4,30.04,SSE,161,0.0,0.0,92,0.00,,,0.00,VWS V14.01,2013-09-12 12:57:00,
2013-09-12 08:00:00,70.0,67.6,30.05,SSE,160,0.0,0.0,92,0.00,,,0.00,VWS V14.01,2013-09-12 13:00:00,
2013-09-12 08:02:00,70.0,67.6,30.05,SSE,161,0.0,0.0,92,0.00,,,0.00,VWS V14.01,2013-09-12 13:02:00,
2013-09-12 08:07:00,70.2,68.1,30.05,SSE,160,0.0,0.0,93,0.00,,,0.00,VWS V14.01,2013-09-12 13:07:00,
2013-09-12 08:12:00,70.4,68.3,30.05,SSE,161,0.0,0.0,93,0.00,,,0.00,VWS V14.01,2013-09-12 13:12:00,
2013-09-12 08:17:00,70.8,68.7,30.05,SSE,160,0.0,0.0,93,0.00,,,0.00,VWS V14.01,2013-09-12 13:17:00,
2013-09-12 08:22:00,71.2,69.1,30.05,SSE,161,0.0,0.0,93,0.00,,,0.00,VWS V14.01,2013-09-12 13:22:00,
2013-09-12 08:27:00,71.6,69.5,30.05,SSE,161,0.0,1.0,93,0.00,,,0.00,VWS V14.01,2013-09-12 13:27:00,
2013-09-12 08:30:00,72.0,69.6,30.05,SSE,161,0.0,1.0,92,0.00,,,0.00,VWS V14.01,2013-09-12 13:30:00,
2013-09-12 08:32:00,72.0,69.6,30.05,SSE,161,0.0,0.0,92,0.00,,,0.00,VWS V14.01,2013-09-12 13:32:00,
2013-09-12 08:37:00,72.4,69.9,30.05,South,170,1.0,2.0,92,0.00,,,0.00,VWS V14.01,2013-09-12 13:37:00,
2013-09-12 08:42:00,73.0,70.2,30.05,South,169,0.0,2.0,91,0.00,,,0.00,VWS V14.01,2013-09-12 13:42:00,
2013-09-12 08:47:00,73.6,70.2,30.05,SSW,206,0.0,4.0,89,0.00,,,0.00,VWS V14.01,2013-09-12 13:47:00,
2013-09-12 08:52:00,74.2,70.1,30.05,WSW,247,0.0,5.0,87,0.00,,,0.00,VWS V14.01,2013-09-12 13:52:00,
2013-09-12 08:57:00,74.9,70.1,30.05,South,175,0.0,5.0,85,0.00,,,0.00,VWS V14.01,2013-09-12 13:57:00,
2013-09-12 09:00:00,75.5,70.3,30.05,South,175,0.0,5.0,84,0.00,,,0.00,VWS V14.01,2013-09-12 14:00:00,
2013-09-12 09:02:00,75.5,70.3,30.05,South,175,0.0,0.0,84,0.00,,,0.00,VWS V14.01,2013-09-12 14:02:00,
2013-09-12 09:07:00,76.2,70.7,30.06,South,175,0.0,1.0,83,0.00,,,0.00,VWS V14.01,2013-09-12 14:07:00,
2013-09-12 09:12:00,77.0,70.4,30.07,NNE,28,4.0,7.0,80,0.00,,,0.00,VWS V14.01,2013-09-12 14:12:00,
2013-09-12 09:17:00,77.9,70.5,30.07,NNE,15,0.0,7.0,78,0.00,,,0.00,VWS V14.01,2013-09-12 14:17:00,
2013-09-12 09:22:00,78.9,70.7,30.07,NNE,14,0.0,7.0,76,0.00,,,0.00,VWS V14.01,2013-09-12 14:22:00,
2013-09-12 09:27:00,80.0,71.0,30.07,NNE,13,0.0,7.0,74,0.00,,,0.00,VWS V14.01,2013-09-12 14:27:00,
2013-09-12 09:30:00,80.4,71.0,30.07,North,5,3.0,10.0,73,0.00,,,0.00,VWS V14.01,2013-09-12 14:30:00,
2013-09-12 09:32:00,80.4,71.0,30.07,NNE,13,1.0,5.0,73,0.00,,,0.00,VWS V14.01,2013-09-12 14:32:00,
2013-09-12 09:38:00,80.5,70.2,30.07,NNE,30,1.0,7.0,71,0.00,,,0.00,VWS V14.01,2013-09-12 14:38:00,
2013-09-12 09:43:00,80.8,70.9,30.07,North,355,0.0,7.0,72,0.00,,,0.00,VWS V14.01,2013-09-12 14:43:00,
2013-09-12 09:48:00,81.6,70.4,30.07,NNW,334,5.0,7.0,69,0.00,,,0.00,VWS V14.01,2013-09-12 14:48:00,
2013-09-12 09:53:00,81.8,70.2,30.07,NNE,31,0.0,7.0,68,0.00,,,0.00,VWS V14.01,2013-09-12 14:53:00,
2013-09-12 09:58:00,82.1,70.5,30.07,North,355,2.0,7.0,68,0.00,,,0.00,VWS V14.01,2013-09-12 14:58:00,
2013-09-12 10:00:00,82.4,70.8,30.07,North,9,0.0,7.0,68,0.00,,,0.00,VWS V14.01,2013-09-12 15:00:00,
2013-09-12 10:03:00,82.5,70.9,30.07,North,9,1.0,1.0,68,0.00,,,0.00,VWS V14.01,2013-09-12 15:03:00,
2013-09-12 10:08:00,83.2,71.1,30.07,NW,316,1.0,4.0,67,0.00,,,0.00,VWS V14.01,2013-09-12 15:08:00,
2013-09-12 10:13:00,83.9,71.3,30.07,NW,315,0.0,4.0,66,0.00,,,0.00,VWS V14.01,2013-09-12 15:13:00,
2013-09-12 10:18:00,84.3,70.8,30.07,NE,36,0.0,9.0,64,0.00,,,0.00,VWS V14.01,2013-09-12 15:18:00,
2013-09-12 10:23:00,84.5,71.0,30.07,NNE,32,3.0,9.0,64,0.00,,,0.00,VWS V14.01,2013-09-12 15:23:00,
2013-09-12 10:28:00,84.7,70.7,30.07,NNW,328,0.0,9.0,63,0.00,,,0.00,VWS V14.01,2013-09-12 15:28:00,
2013-09-12 10:30:00,84.8,70.3,30.07,NNE,26,4.0,9.0,62,0.00,,,0.00,VWS V14.01,2013-09-12 15:30:00,
2013-09-12 10:33:00,84.8,70.3,30.07,NNE,27,4.0,5.0,62,0.00,,,0.00,VWS V14.01,2013-09-12 15:33:00,
2013-09-12 10:38:00,85.0,70.1,30.07,NNE,26,2.0,5.0,61,0.00,,,0.00,VWS V14.01,2013-09-12 15:38:00,
2013-09-12 10:43:00,85.3,70.8,30.07,North,11,2.0,7.0,62,0.00,,,0.00,VWS V14.01,2013-09-12 15:43:00,
2013-09-12 10:48:00,85.5,71.0,30.07,NNE,14,1.0,7.0,62,0.00,,,0.00,VWS V14.01,2013-09-12 15:48:00,
2013-09-12 10:53:00,86.4,71.4,30.07,NNE,28,3.0,7.0,61,0.00,,,0.00,VWS V14.01,2013-09-12 15:53:00,
2013-09-12 10:58:00,86.7,71.2,30.07,NNE,29,1.0,7.0,60,0.00,,,0.00,VWS V14.01,2013-09-12 15:58:00,
2013-09-12 11:00:00,87.0,71.9,30.07,NNE,32,0.0,7.0,61,0.00,,,0.00,VWS V14.01,2013-09-12 16:00:00,
2013-09-12 11:03:00,87.1,71.5,30.07,NNE,32,0.0,0.0,60,0.00,,,0.00,VWS V14.01,2013-09-12 16:03:00,
2013-09-12 11:08:00,87.1,71.5,30.07,North,360,1.0,7.0,60,0.00,,,0.00,VWS V14.01,2013-09-12 16:08:00,
2013-09-12 11:13:00,87.7,72.1,30.07,NNW,336,4.0,7.0,60,0.00,,,0.00,VWS V14.01,2013-09-12 16:13:00,
2013-09-12 11:18:00,87.1,71.0,30.07,North,360,2.0,7.0,59,0.00,,,0.00,VWS V14.01,2013-09-12 16:18:00,
2013-09-12 11:23:00,86.6,71.6,30.07,North,355,1.0,7.0,61,0.00,,,0.00,VWS V14.01,2013-09-12 16:23:00,
2013-09-12 11:28:00,87.1,71.5,30.07,North,349,0.0,7.0,60,0.00,,,0.00,VWS V14.01,2013-09-12 16:28:00,
2013-09-12 11:30:00,87.6,71.5,30.07,North,355,5.0,7.0,59,0.00,,,0.00,VWS V14.01,2013-09-12 16:30:00,
2013-09-12 11:33:00,87.7,71.1,30.07,North,355,1.0,5.0,58,0.00,,,0.00,VWS V14.01,2013-09-12 16:33:00,
2013-09-12 11:38:00,88.3,71.7,30.07,NNE,33,4.0,6.0,58,0.00,,,0.00,VWS V14.01,2013-09-12 16:38:00,
2013-09-12 11:43:00,88.3,71.2,30.07,NNE,23,3.0,6.0,57,0.00,,,0.00,VWS V14.01,2013-09-12 16:43:00,
2013-09-12 11:48:00,88.8,72.1,30.06,NNE,21,3.0,6.0,58,0.00,,,0.00,VWS V14.01,2013-09-12 16:48:00,
2013-09-12 11:53:00,89.8,71.5,30.06,NE,34,5.0,6.0,55,0.00,,,0.00,VWS V14.01,2013-09-12 16:53:00,
2013-09-12 11:58:00,89.6,71.3,30.06,East,99,1.0,6.0,55,0.00,,,0.00,VWS V14.01,2013-09-12 16:58:00,
2013-09-12 12:00:00,89.6,71.8,30.06,North,350,0.0,6.0,56,0.00,,,0.00,VWS V14.01,2013-09-12 17:00:00,
2013-09-12 12:03:00,89.6,71.8,30.06,North,350,0.0,1.0,56,0.00,,,0.00,VWS V14.01,2013-09-12 17:03:00,
2013-09-12 12:08:00,89.8,71.5,30.06,North,9,5.0,7.0,55,0.00,,,0.00,VWS V14.01,2013-09-12 17:08:00,
2013-09-12 12:13:00,89.2,71.5,30.05,North,11,2.0,7.0,56,0.00,,,0.00,VWS V14.01,2013-09-12 17:13:00,
2013-09-12 12:18:00,89.3,71.6,30.05,North,9,0.0,7.0,56,0.00,,,0.00,VWS V14.01,2013-09-12 17:18:00,
2013-09-12 12:23:00,89.2,71.5,30.05,NNE,32,0.0,7.0,56,0.00,,,0.00,VWS V14.01,2013-09-12 17:23:00,
2013-09-12 12:28:00,89.6,71.8,30.05,NNE,32,0.0,7.0,56,0.00,,,0.00,VWS V14.01,2013-09-12 17:28:00,
2013-09-12 12:30:00,90.3,71.9,30.05,NNE,21,0.0,7.0,55,0.00,,,0.00,VWS V14.01,2013-09-12 17:30:00,
2013-09-12 12:33:00,90.4,71.5,30.05,NNE,22,0.0,0.0,54,0.00,,,0.00,VWS V14.01,2013-09-12 17:33:00,
2013-09-12 12:38:00,90.6,71.7,30.05,East,80,2.0,5.0,54,0.00,,,0.00,VWS V14.01,2013-09-12 17:38:00,
2013-09-12 12:43:00,90.6,71.1,30.05,NNW,341,2.0,7.0,53,0.00,,,0.00,VWS V14.01,2013-09-12 17:43:00,
2013-09-12 12:48:00,90.2,70.8,30.05,NE,37,0.0,9.0,53,0.00,,,0.00,VWS V14.01,2013-09-12 17:48:00,
2013-09-12 12:53:00,90.3,70.9,30.05,NE,37,0.0,9.0,53,0.00,,,0.00,VWS V14.01,2013-09-12 17:53:00,
2013-09-12 12:58:00,91.3,71.2,30.04,NE,40,0.0,9.0,52,0.00,,,0.00,VWS V14.01,2013-09-12 17:58:00,
2013-09-12 13:00:00,91.4,71.3,30.04,North,9,1.0,9.0,52,0.00,,,0.00,VWS V14.01,2013-09-12 18:00:00,
2013-09-12 13:03:00,91.4,71.3,30.04,WNW,303,5.0,6.0,52,0.00,,,0.00,VWS V14.01,2013-09-12 18:03:00,
2013-09-12 13:08:00,91.3,71.2,30.04,North,10,4.0,7.0,52,0.00,,,0.00,VWS V14.01,2013-09-12 18:08:00,
2013-09-12 13:13:00,91.3,71.2,30.04,NNE,33,3.0,7.0,52,0.00,,,0.00,VWS V14.01,2013-09-12 18:13:00,
2013-09-12 13:18:00,91.7,71.6,30.03,ENE,58,0.0,7.0,52,0.00,,,0.00,VWS V14.01,2013-09-12 18:18:00,
2013-09-12 13:23:00,92.4,71.1,30.03,ENE,61,1.0,9.0,50,0.00,,,0.00,VWS V14.01,2013-09-12 18:23:00,
2013-09-12 13:28:00,92.1,72.0,30.03,NNE,27,4.0,9.0,52,0.00,,,0.00,VWS V14.01,2013-09-12 18:28:00,
2013-09-12 13:30:00,92.4,71.1,30.03,North,349,2.0,9.0,50,0.00,,,0.00,VWS V14.01,2013-09-12 18:30:00,
2013-09-12 13:33:00,92.5,71.8,30.03,NE,48,5.0,5.0,51,0.00,,,0.00,VWS V14.01,2013-09-12 18:33:00,
2013-09-12 13:38:00,92.7,71.3,30.03,NNE,19,1.0,8.0,50,0.00,,,0.00,VWS V14.01,2013-09-12 18:38:00,
2013-09-12 13:43:00,92.3,70.4,30.02,North,360,1.0,8.0,49,0.00,,,0.00,VWS V14.01,2013-09-12 18:43:00,
2013-09-12 13:48:00,92.8,71.4,30.02,North,11,2.0,8.0,50,0.00,,,0.00,VWS V14.01,2013-09-12 18:48:00,
2013-09-12 13:53:00,93.1,71.1,30.02,North,11,4.0,10.0,49,0.00,,,0.00,VWS V14.01,2013-09-12 18:53:00,
2013-09-12 13:58:00,93.0,71.0,30.02,NNE,24,1.0,10.0,49,0.00,,,0.00,VWS V14.01,2013-09-12 18:58:00,
2013-09-12 14:00:00,93.5,70.9,30.02,NE,55,0.0,10.0,48,0.00,,,0.00,VWS V14.01,2013-09-12 19:00:00,
2013-09-12 14:03:00,93.6,70.3,30.02,NNE,16,4.0,6.0,47,0.00,,,0.00,VWS V14.01,2013-09-12 19:03:00,
2013-09-12 14:08:00,93.4,70.2,30.01,North,5,5.0,9.0,47,0.00,,,0.00,VWS V14.01,2013-09-12 19:08:00,
2013-09-12 14:14:00,93.0,69.8,30.01,NE,48,2.0,9.0,47,0.00,,,0.00,VWS V14.01,2013-09-12 19:14:00,
2013-09-12 14:19:00,93.1,69.9,30.01,ENE,58,0.0,9.0,47,0.00,,,0.00,VWS V14.01,2013-09-12 19:19:00,
2013-09-12 14:24:00,93.9,69.3,30.00,North,360,7.0,9.0,45,0.00,,,0.00,VWS V14.01,2013-09-12 19:24:00,
2013-09-12 14:29:00,93.7,69.8,30.00,NW,309,0.0,9.0,46,0.00,,,0.00,VWS V14.01,2013-09-12 19:29:00,
2013-09-12 14:30:00,93.9,70.0,30.00,North,360,6.0,9.0,46,0.00,,,0.00,VWS V14.01,2013-09-12 19:30:00,
2013-09-12 14:34:00,94.1,69.5,30.00,North,5,0.0,10.0,45,0.00,,,0.00,VWS V14.01,2013-09-12 19:34:00,
2013-09-12 14:39:00,94.0,68.8,29.99,NE,41,0.0,10.0,44,0.00,,,0.00,VWS V14.01,2013-09-12 19:39:00,
2013-09-12 14:44:00,94.3,69.7,29.99,NE,36,2.0,10.0,45,0.00,,,0.00,VWS V14.01,2013-09-12 19:44:00,
2013-09-12 14:49:00,94.9,70.2,29.99,NNE,32,0.0,10.0,45,0.00,,,0.00,VWS V14.01,2013-09-12 19:49:00,
2013-09-12 14:54:00,95.5,70.1,29.99,NE,36,0.0,10.0,44,0.00,,,0.00,VWS V14.01,2013-09-12 19:54:00,
2013-09-12 14:59:00,96.0,69.9,29.98,ENE,71,5.0,10.0,43,0.00,,,0.00,VWS V14.01,2013-09-12 19:59:00,
2013-09-12 15:00:00,95.8,69.7,29.98,NE,44,6.0,10.0,43,0.00,,,0.00,VWS V14.01,2013-09-12 20:00:00,
2013-09-12 15:04:00,95.6,70.2,29.98,NNE,17,0.0,6.0,44,0.00,,,0.00,VWS V14.01,2013-09-12 20:04:00,
2013-09-12 15:09:00,95.5,70.1,29.98,NNW,340,2.0,8.0,44,0.00,,,0.00,VWS V14.01,2013-09-12 20:09:00,
2013-09-12 15:14:00,96.2,71.4,29.98,NNE,21,6.0,8.0,45,0.00,,,0.00,VWS V14.01,2013-09-12 20:14:00,
2013-09-12 15:19:00,95.2,67.8,29.97,NW,317,3.0,10.0,41,0.00,,,0.00,VWS V14.01,2013-09-12 20:19:00,
2013-09-12 15:24:00,93.9,68.7,29.97,NNE,30,2.0,10.0,44,0.00,,,0.00,VWS V14.01,2013-09-12 20:24:00,
2013-09-12 15:29:00,93.9,68.7,29.97,NE,35,0.0,10.0,44,0.00,,,0.00,VWS V14.01,2013-09-12 20:29:00,
2013-09-12 15:30:00,93.6,69.1,29.97,NE,35,0.0,10.0,45,0.00,,,0.00,VWS V14.01,2013-09-12 20:30:00,
2013-09-12 15:34:00,93.5,69.0,29.97,NE,35,0.0,1.0,45,0.00,,,0.00,VWS V14.01,2013-09-12 20:34:00,
2013-09-12 15:39:00,93.7,69.2,29.97,NNE,17,0.0,7.0,45,0.00,,,0.00,VWS V14.01,2013-09-12 20:39:00,
2013-09-12 15:44:00,93.8,69.3,29.97,NE,41,1.0,7.0,45,0.00,,,0.00,VWS V14.01,2013-09-12 20:44:00,
2013-09-12 15:49:00,93.6,69.1,29.97,North,360,5.0,7.0,45,0.00,,,0.00,VWS V14.01,2013-09-12 20:49:00,
2013-09-12 15:54:00,93.2,69.4,29.97,NE,42,3.0,7.0,46,0.00,,,0.00,VWS V14.01,2013-09-12 20:54:00,
2013-09-12 15:59:00,92.7,68.9,29.97,ENE,72,3.0,7.0,46,0.00,,,0.00,VWS V14.01,2013-09-12 20:59:00,
2013-09-12 16:00:00,92.5,68.7,29.97,NE,41,2.0,7.0,46,0.00,,,0.00,VWS V14.01,2013-09-12 21:00:00,
2013-09-12 16:04:00,92.3,68.5,29.97,NE,40,0.0,2.0,46,0.00,,,0.00,VWS V14.01,2013-09-12 21:04:00,
2013-09-12 16:09:00,92.0,70.1,29.97,South,188,6.0,10.0,49,0.00,,,0.00,VWS V14.01,2013-09-12 21:09:00,
2013-09-12 16:14:00,91.5,70.2,29.97,South,183,1.0,10.0,50,0.00,,,0.00,VWS V14.01,2013-09-12 21:14:00,
2013-09-12 16:19:00,90.3,69.7,29.97,West,269,5.0,12.0,51,0.00,,,0.00,VWS V14.01,2013-09-12 21:19:00,
2013-09-12 16:24:00,89.0,68.5,29.96,South,186,4.0,12.0,51,0.00,,,0.00,VWS V14.01,2013-09-12 21:24:00,
2013-09-12 16:29:00,87.7,67.9,29.96,South,187,2.0,12.0,52,0.00,,,0.00,VWS V14.01,2013-09-12 21:29:00,
2013-09-12 16:30:00,87.0,68.4,29.96,SW,232,1.0,12.0,54,0.00,,,0.00,VWS V14.01,2013-09-12 21:30:00,
2013-09-12 16:34:00,86.6,68.5,29.96,WNW,286,0.0,5.0,55,0.00,,,0.00,VWS V14.01,2013-09-12 21:34:00,
2013-09-12 16:39:00,85.8,69.8,29.97,NW,316,4.0,9.0,59,0.00,,,0.00,VWS V14.01,2013-09-12 21:39:00,
2013-09-12 16:44:00,84.8,69.9,29.97,WNW,303,0.0,9.0,61,0.00,,,0.00,VWS V14.01,2013-09-12 21:44:00,
2013-09-12 16:49:00,84.1,70.2,29.97,NW,310,0.0,9.0,63,0.00,,,0.00,VWS V14.01,2013-09-12 21:49:00,
2013-09-12 16:54:00,83.2,69.8,29.97,WNW,303,0.0,9.0,64,0.00,,,0.00,VWS V14.01,2013-09-12 21:54:00,
2013-09-12 16:59:00,82.4,69.9,29.99,NW,309,6.0,9.0,66,0.00,,,0.00,VWS V14.01,2013-09-12 21:59:00,
2013-09-12 17:00:00,81.9,69.4,29.99,NW,322,4.0,9.0,66,0.00,,,0.00,VWS V14.01,2013-09-12 22:00:00,
2013-09-12 17:04:00,81.4,69.4,29.99,NNW,337,0.0,4.0,67,0.00,,,0.00,VWS V14.01,2013-09-12 22:04:00,
2013-09-12 17:09:00,80.9,69.8,30.00,SSE,150,2.0,6.0,69,0.00,,,0.00,VWS V14.01,2013-09-12 22:09:00,
2013-09-12 17:14:00,80.5,70.2,30.01,SSW,210,3.0,7.0,71,0.00,,,0.00,VWS V14.01,2013-09-12 22:14:00,
2013-09-12 17:19:00,79.7,71.1,30.01,SE,125,0.0,7.0,75,0.06,,,0.06,VWS V14.01,2013-09-12 22:19:00,
2013-09-12 17:24:00,78.1,71.1,30.02,SSW,196,7.0,9.0,79,0.12,,,0.12,VWS V14.01,2013-09-12 22:24:00,
2013-09-12 17:29:00,76.4,69.8,30.02,SSW,210,3.0,12.0,80,0.14,,,0.14,VWS V14.01,2013-09-12 22:29:00,
2013-09-12 17:30:00,75.6,69.0,30.02,SSW,208,5.0,12.0,80,0.15,,,0.15,VWS V14.01,2013-09-12 22:30:00,
2013-09-12 17:34:00,74.9,68.7,30.03,WSW,244,9.0,10.0,81,0.15,,,0.15,VWS V14.01,2013-09-12 22:34:00,
2013-09-12 17:39:00,73.8,68.0,30.02,SE,124,0.0,18.0,82,0.20,,,0.20,VWS V14.01,2013-09-12 22:39:00,
2013-09-12 17:44:00,73.0,67.9,30.00,SE,134,2.0,18.0,84,0.30,,,0.30,VWS V14.01,2013-09-12 22:44:00,
2013-09-12 17:49:00,72.3,67.5,30.00,SE,132,0.0,18.0,85,0.31,,,0.31,VWS V14.01,2013-09-12 22:49:00,
2013-09-12 17:54:00,72.0,67.6,29.99,SE,132,0.0,18.0,86,0.31,,,0.31,VWS V14.01,2013-09-12 22:54:00,
2013-09-12 17:59:00,71.8,67.7,29.99,SE,132,0.0,18.0,87,0.31,,,0.31,VWS V14.01,2013-09-12 22:59:00,
2013-09-12 18:00:00,71.8,68.1,29.99,SSW,199,4.0,18.0,88,0.31,,,0.31,VWS V14.01,2013-09-12 23:00:00,
2013-09-12 18:04:00,71.7,68.0,29.99,SSW,200,0.0,4.0,88,0.31,,,0.31,VWS V14.01,2013-09-12 23:04:00,
2013-09-12 18:09:00,71.7,68.3,29.99,SSW,200,0.0,4.0,89,0.31,,,0.31,VWS V14.01,2013-09-12 23:09:00,
2013-09-12 18:14:00,71.7,68.3,29.99,SSW,200,0.0,4.0,89,0.31,,,0.31,VWS V14.01,2013-09-12 23:14:00,
2013-09-12 18:19:00,71.7,68.6,29.99,SSW,199,0.0,4.0,90,0.31,,,0.31,VWS V14.01,2013-09-12 23:19:00,
2013-09-12 18:24:00,71.6,68.5,29.99,SSW,200,0.0,4.0,90,0.31,,,0.31,VWS V14.01,2013-09-12 23:24:00,
2013-09-12 18:29:00,71.5,68.1,29.99,SSW,200,0.0,4.0,89,0.31,,,0.31,VWS V14.01,2013-09-12 23:29:00,
2013-09-12 18:30:00,71.4,68.0,30.00,SSW,200,0.0,4.0,89,0.31,,,0.31,VWS V14.01,2013-09-12 23:30:00,
2013-09-12 18:34:00,71.3,68.2,29.99,SSW,200,0.0,0.0,90,0.16,,,0.31,VWS V14.01,2013-09-12 23:34:00,
2013-09-12 18:39:00,71.2,68.1,29.99,SSW,200,0.0,1.0,90,0.16,,,0.31,VWS V14.01,2013-09-12 23:39:00,
2013-09-12 18:45:00,71.1,68.0,29.99,SSW,199,2.0,6.0,90,0.16,,,0.31,VWS V14.01,2013-09-12 23:45:00,
2013-09-12 18:50:00,70.9,67.8,29.99,SSW,199,0.0,6.0,90,0.16,,,0.31,VWS V14.01,2013-09-12 23:50:00,
2013-09-12 18:54:00,70.8,67.7,29.99,SSW,200,0.0,6.0,90,0.16,,,0.31,VWS V14.01,2013-09-12 23:54:00,
2013-09-12 18:59:00,70.8,68.1,29.98,SSW,200,0.0,6.0,91,0.16,,,0.31,VWS V14.01,2013-09-12 23:59:00,
2013-09-12 19:00:00,70.9,68.2,29.99,SSW,200,0.0,6.0,91,0.16,,,0.31,VWS V14.01,2013-09-13 00:00:00,
2013-09-12 19:05:00,70.9,68.2,29.98,SSW,200,0.0,0.0,91,0.00,,,0.31,VWS V14.01,2013-09-13 00:05:00,
2013-09-12 19:09:00,71.2,68.8,29.98,SSW,200,0.0,0.0,92,0.00,,,0.31,VWS V14.01,2013-09-13 00:09:00,
2013-09-12 19:15:00,71.8,69.7,29.99,SSW,200,0.0,1.0,93,0.00,,,0.31,VWS V14.01,2013-09-13 00:15:00,
2013-09-12 19:20:00,71.8,69.3,29.99,SSW,206,0.0,1.0,92,0.00,,,0.31,VWS V14.01,2013-09-13 00:20:00,
2013-09-12 19:25:00,71.7,68.9,29.99,SSW,207,0.0,1.0,91,0.00,,,0.31,VWS V14.01,2013-09-13 00:25:00,
2013-09-12 19:30:00,71.8,69.0,29.98,SSW,207,0.0,1.0,91,0.00,,,0.31,VWS V14.01,2013-09-13 00:30:00,
2013-09-12 19:35:00,71.9,69.1,29.99,SW,226,0.0,2.0,91,0.00,,,0.31,VWS V14.01,2013-09-13 00:35:00,
2013-09-12 19:40:00,72.1,69.3,29.99,SW,227,0.0,2.0,91,0.00,,,0.31,VWS V14.01,2013-09-13 00:40:00,
2013-09-12 19:45:00,72.2,69.1,29.99,SW,232,0.0,4.0,90,0.00,,,0.31,VWS V14.01,2013-09-13 00:45:00,
2013-09-12 19:50:00,72.5,69.7,29.99,SW,233,0.0,4.0,91,0.00,,,0.31,VWS V14.01,2013-09-13 00:50:00,
2013-09-12 19:55:00,72.7,69.9,29.99,SW,233,0.0,4.0,91,0.00,,,0.31,VWS V14.01,2013-09-13 00:55:00,
2013-09-12 20:00:00,72.8,70.0,29.99,SW,233,0.0,4.0,91,0.00,,,0.31,VWS V14.01,2013-09-13 01:00:00,
2013-09-12 20:05:00,72.9,70.1,29.99,SW,233,0.0,0.0,91,0.00,,,0.31,VWS V14.01,2013-09-13 01:05:00,
2013-09-12 20:10:00,72.9,70.1,29.99,SW,233,0.0,0.0,91,0.00,,,0.31,VWS V14.01,2013-09-13 01:10:00,
2013-09-12 20:15:00,72.9,70.1,30.00,SW,233,0.0,0.0,91,0.00,,,0.31,VWS V14.01,2013-09-13 01:15:00,
2013-09-12 20:20:00,72.9,70.1,30.00,SW,233,0.0,0.0,91,0.00,,,0.31,VWS V14.01,2013-09-13 01:20:00,
2013-09-12 20:25:00,72.9,70.1,30.00,SW,233,0.0,0.0,91,0.00,,,0.31,VWS V14.01,2013-09-13 01:25:00,
2013-09-12 20:30:00,72.8,70.0,30.00,SW,233,0.0,0.0,91,0.00,,,0.31,VWS V14.01,2013-09-13 01:30:00,
2013-09-12 20:35:00,72.8,70.0,30.01,SW,233,0.0,0.0,91,0.00,,,0.31,VWS V14.01,2013-09-13 01:35:00,
2013-09-12 20:40:00,72.8,70.0,30.01,SW,233,0.0,0.0,91,0.00,,,0.31,VWS V14.01,2013-09-13 01:40:00,
2013-09-12 20:45:00,72.8,70.0,30.01,SW,233,0.0,0.0,91,0.00,,,0.31,VWS V14.01,2013-09-13 01:45:00,
2013-09-12 20:50:00,72.7,69.9,30.01,SW,233,0.0,0.0,91,0.00,,,0.31,VWS V14.01,2013-09-13 01:50:00,
2013-09-12 20:55:00,72.7,69.9,30.01,SW,233,0.0,0.0,91,0.00,,,0.31,VWS V14.01,2013-09-13 01:55:00,
2013-09-12 21:00:00,72.7,70.2,30.01,SW,233,0.0,0.0,92,0.00,,,0.31,VWS V14.01,2013-09-13 02:00:00,
2013-09-12 21:05:00,72.7,70.2,30.01,SW,233,0.0,0.0,92,0.00,,,0.31,VWS V14.01,2013-09-13 02:05:00,
2013-09-12 21:10:00,72.6,70.2,30.02,SW,233,0.0,0.0,92,0.00,,,0.31,VWS V14.01,2013-09-13 02:10:00,
2013-09-12 21:15:00,72.6,70.2,30.02,SW,233,0.0,0.0,92,0.00,,,0.31,VWS V14.01,2013-09-13 02:15:00,
2013-09-12 21:20:00,72.5,69.7,30.02,SW,233,0.0,0.0,91,0.00,,,0.31,VWS V14.01,2013-09-13 02:20:00,
2013-09-12 21:25:00,72.4,69.9,30.02,SW,233,0.0,0.0,92,0.00,,,0.31,VWS V14.01,2013-09-13 02:25:00,
2013-09-12 21:30:00,72.4,69.9,30.02,SW,233,0.0,0.0,92,0.00,,,0.31,VWS V14.01,2013-09-13 02:30:00,
2013-09-12 21:35:00,72.4,69.9,30.02,SW,233,0.0,0.0,92,0.00,,,0.31,VWS V14.01,2013-09-13 02:35:00,
2013-09-12 21:40:00,72.4,69.9,30.02,SW,233,0.0,0.0,92,0.00,,,0.31,VWS V14.01,2013-09-13 02:40:00,
2013-09-12 21:45:00,72.5,70.4,30.02,SW,233,0.0,0.0,93,0.00,,,0.31,VWS V14.01,2013-09-13 02:45:00,
2013-09-12 21:50:00,72.4,70.3,30.02,SW,233,0.0,0.0,93,0.00,,,0.31,VWS V14.01,2013-09-13 02:50:00,
2013-09-12 21:55:00,72.5,70.4,30.02,SW,233,0.0,0.0,93,0.00,,,0.31,VWS V14.01,2013-09-13 02:55:00,
2013-09-12 22:00:00,72.5,70.4,30.02,SW,233,0.0,0.0,93,0.00,,,0.31,VWS V14.01,2013-09-13 03:00:00,
2013-09-12 22:05:00,72.6,70.5,30.02,SW,233,0.0,1.0,93,0.00,,,0.31,VWS V14.01,2013-09-13 03:05:00,
2013-09-12 22:10:00,72.7,70.6,30.02,SW,233,0.0,1.0,93,0.00,,,0.31,VWS V14.01,2013-09-13 03:10:00,
2013-09-12 22:15:00,72.8,70.7,30.02,SW,233,0.0,1.0,93,0.00,,,0.31,VWS V14.01,2013-09-13 03:15:00,
2013-09-12 22:20:00,73.0,70.9,30.02,SW,233,0.0,1.0,93,0.00,,,0.31,VWS V14.01,2013-09-13 03:20:00,
2013-09-12 22:25:00,73.0,70.9,30.02,SW,233,0.0,1.0,93,0.00,,,0.31,VWS V14.01,2013-09-13 03:25:00,
2013-09-12 22:30:00,73.1,71.0,30.02,SW,233,0.0,1.0,93,0.00,,,0.31,VWS V14.01,2013-09-13 03:30:00,
2013-09-12 22:35:00,73.1,71.0,30.02,SW,233,0.0,1.0,93,0.00,,,0.31,VWS V14.01,2013-09-13 03:35:00,
2013-09-12 22:40:00,73.1,70.6,30.02,SW,233,0.0,1.0,92,0.00,,,0.31,VWS V14.01,2013-09-13 03:40:00,
2013-09-12 22:45:00,73.1,70.6,30.02,SW,233,0.0,1.0,92,0.00,,,0.31,VWS V14.01,2013-09-13 03:45:00,
2013-09-12 22:50:00,73.2,70.7,30.02,SW,233,0.0,1.0,92,0.00,,,0.31,VWS V14.01,2013-09-13 03:50:00,
2013-09-12 22:55:00,73.4,70.9,30.02,SW,233,0.0,1.0,92,0.00,,,0.31,VWS V14.01,2013-09-13 03:55:00,
2013-09-12 23:00:00,73.5,70.7,30.02,SW,233,0.0,1.0,91,0.00,,,0.31,VWS V14.01,2013-09-13 04:00:00,
2013-09-12 23:01:00,73.5,70.7,30.02,North,5,4.0,5.0,91,0.00,,,0.31,VWS V14.01,2013-09-13 04:01:00,
2013-09-12 23:06:00,73.9,70.8,30.02,NE,36,0.0,1.0,90,0.00,,,0.31,VWS V14.01,2013-09-13 04:06:00,
2013-09-12 23:11:00,74.2,70.8,30.02,NNE,29,0.0,5.0,89,0.00,,,0.31,VWS V14.01,2013-09-13 04:11:00,
2013-09-12 23:16:00,74.6,70.8,30.02,NNE,12,0.0,5.0,88,0.00,,,0.31,VWS V14.01,2013-09-13 04:16:00,
2013-09-12 23:21:00,74.9,70.8,30.02,North,11,0.0,5.0,87,0.00,,,0.31,VWS V14.01,2013-09-13 04:21:00,
2013-09-12 23:26:00,75.1,71.0,30.02,North,11,0.0,5.0,87,0.00,,,0.31,VWS V14.01,2013-09-13 04:26:00,
2013-09-12 23:30:00,75.4,71.3,30.02,NE,41,0.0,5.0,87,0.00,,,0.31,VWS V14.01,2013-09-13 04:30:00,
2013-09-12 23:31:00,75.4,71.3,30.02,NE,41,0.0,5.0,87,0.00,,,0.31,VWS V14.01,2013-09-13 04:31:00,
2013-09-12 23:36:00,75.4,70.9,30.02,NNE,29,0.0,1.0,86,0.00,,,0.31,VWS V14.01,2013-09-13 04:36:00,
2013-09-12 23:41:00,75.5,71.0,30.02,NNE,22,0.0,2.0,86,0.00,,,0.31,VWS V14.01,2013-09-13 04:41:00,
2013-09-12 23:46:00,75.5,71.0,30.02,NNE,22,0.0,2.0,86,0.00,,,0.31,VWS V14.01,2013-09-13 04:46:00,
2013-09-12 23:51:00,75.5,71.0,30.02,NNE,22,0.0,2.0,86,0.00,,,0.31,VWS V14.01,2013-09-13 04:51:00,
2013-09-12 23:56:00,75.5,71.0,30.02,NNE,19,0.0,2.0,86,0.00,,,0.31,VWS V14.01,2013-09-13 04:56:00,